Wind_Speed
12 11 11 10 9 8 6 5 7 12 13 12 12 11 13 13 11 11 11 10 8 8 6 5 4 4 4 4 4 4 3 3 3 2 2 2 2 2 2 1 1 1 1 1 1 1 0 0 0
12 12 11 10 8 8 10 9 11 14 15 15 13 12 14 12 11 12 12 11 8 9 7 7 6 6 5 5 4 4 4 4 4 3 3 3 3 3 3 3 2 2 2 2 2 2 2 2 1
13 12 11 10 7 6 10 13 16 17 17 15 14 14 14 12 12 12 12 11 10 10 9 9 8 7 6 5 5 5 5 5 5 5 4 4 4 4 4 4 4 4 4 4 4 3 3 3 3
13 12 11 9 5 6 11 16 21 19 18 16 15 16 15 13 13 12 12 12 11 10 10 10 9 8 7 6 6 6 6 6 6 6 6 6 6 5 6 6 6 5 5 6 5 5 5 5 5
14 12 10 7 7 10 15 19 21 19 17 17 16 17 15 13 13 13 13 13 12 10 10 10 9 8 8 7 7 7 7 7 7 7 6 6 6 6 6 7 6 6 6 7 7 6 6 7 7
13 12 8 7 10 14 19 22 20 18 16 18 17 19 16 13 13 14 14 13 12 11 11 11 10 10 9 9 9 9 8 8 8 8 8 7 7 7 7 7 7 7 7 7 7 7 7 7 8
13 12 8 6 9 15 20 24 21 18 17 17 18 21 17 14 13 14 14 14 13 12 13 13 12 12 11 10 10 10 10 10 9 9 9 8 8 8 8 8 7 7 7 7 7 8 8 8 8
11 10 6 5 9 13 21 25 22 19 17 19 21 21 17 16 15 14 15 15 14 13 14 14 13 13 12 11 11 12 12 12 11 10 10 10 9 9 9 9 9 8 8 8 8 8 8 9 10
10 7 5 5 9 13 19 22 20 19 19 20 22 20 20 17 15 15 16 16 15 15 14 15 14 14 14 12 12 13 13 12 12 11 11 11 10 10 10 9 9 9 10 9 9 9 9 10 11
9 7 7 11 14 15 16 19 17 18 18 20 21 21 20 17 15 16 17 17 17 17 17 16 16 16 15 14 14 14 14 14 14 13 11 11 10 10 9 9 9 9 10 10 10 10 10 11 11
9 8 10 13 15 16 16 17 18 18 17 19 20 19 16 18 17 17 19 20 19 18 18 17 17 17 16 15 15 15 15 15 14 13 11 10 10 10 9 8 8 8 8 8 8 9 10 10 10
10 10 12 13 14 15 14 16 17 17 18 18 20 20 18 19 20 19 20 21 20 19 19 18 18 18 17 16 16 15 15 14 13 12 11 11 10 9 8 7 7 7 7 8 8 9 9 10 10
10 11 11 12 13 14 14 15 16 17 18 19 20 20 20 21 21 22 22 22 22 21 20 19 18 18 18 17 17 15 13 12 11 11 11 10 8 7 7 7 6 6 7 7 8 9 9 9 9
9 9 10 11 12 14 16 16 18 17 16 17 18 20 23 22 22 23 23 22 22 22 21 20 19 18 17 16 15 13 12 11 10 11 9 8 7 6 6 6 6 6 7 8 8 9 9 9 9
8 8 9 12 14 15 17 17 19 16 16 18 18 19 19 21 21 22 22 22 22 21 21 20 19 18 17 16 14 13 12 11 10 10 9 7 6 6 6 6 6 7 7 8 8 8 9 9 9
7 9 12 12 14 16 18 18 18 18 18 18 18 19 19 20 21 22 22 22 21 21 20 19 18 18 17 16 14 13 11 9 8 7 6 6 6 6 5 5 6 6 7 8 8 8 9 9 9
8 11 11 13 13 15 18 19 18 17 18 19 19 19 18 19 20 21 20 20 19 19 19 18 16 16 16 15 14 12 11 8 7 6 5 5 5 4 5 5 6 6 7 7 7 8 8 9 9
10 11 10 12 16 18 18 18 18 16 17 18 19 17 16 16 15 18 18 18 18 18 18 17 16 15 15 14 12 10 8 6 5 5 4 4 4 4 4 4 5 5 6 6 6 7 7 8 9
11 10 11 15 15 16 17 18 17 16 16 17 17 15 12 11 9 12 14 15 15 16 16 16 15 14 13 12 11 9 7 6 5 4 4 3 3 3 3 3 4 4 5 6 7 7 8 8 9
10 11 13 15 16 16 16 15 15 15 16 16 15 13 10 8 8 10 11 12 13 14 14 14 14 13 12 11 9 9 8 6 5 3 2 2 2 2 2 3 4 4 5 6 7 8 8 9 9
11 12 14 15 15 15 16 15 14 15 15 15 13 11 10 7 6 6 8 9 12 13 13 13 12 12 12 11 9 9 7 6 5 3 2 1 1 2 2 3 4 4 6 7 8 8 9 9 10
13 13 14 14 14 14 13 15 13 14 14 14 12 10 8 5 5 6 7 9 10 10 11 12 12 12 12 10 9 8 7 6 4 3 2 1 0 1 2 3 3 5 6 7 8 9 10 11 11
15 15 14 13 13 14 14 15 13 12 14 12 12 9 6 4 5 6 7 9 9 10 11 12 12 11 10 10 9 8 7 6 4 4 2 1 1 1 2 3 4 5 7 8 10 11 11 12 12
15 15 14 13 14 16 11 12 12 12 13 12 10 8 5 4 5 5 6 8 10 10 11 11 10 10 10 10 9 8 7 6 5 4 3 1 0 1 3 4 5 6 8 10 11 12 12 13 14
13 13 14 15 14 11 7 8 10 11 12 11 9 6 3 3 4 5 6 7 9 10 10 10 10 10 9 9 9 8 7 6 5 4 3 2 2 2 3 5 6 8 9 11 12 13 14 15 15
14 13 14 15 13 12 9 9 9 10 9 9 7 5 2 2 4 5 6 7 8 8 9 9 10 10 9 10 9 8 7 7 5 4 3 3 3 4 5 6 8 9 11 12 13 14 15 16 17
17 15 14 15 12 12 12 12 11 8 7 7 6 4 3 3 5 5 6 7 8 8 8 8 9 9 9 9 9 8 7 6 5 5 4 4 5 6 7 9 10 11 12 14 15 16 17 18 18
17 15 15 15 15 13 13 14 12 7 7 7 6 4 4 4 5 6 6 7 7 8 7 8 8 9 8 9 9 8 7 6 6 6 6 6 7 8 9 11 12 13 14 15 16 17 18 19 19
18 17 17 16 15 15 16 14 11 9 8 8 6 5 4 5 5 6 7 8 8 8 7 7 8 8 8 8 8 8 8 8 7 7 8 8 9 11 12 13 14 15 16 17 18 19 19 20 21
20 19 19 18 16 14 15 15 10 9 8 8 7 7 6 6 6 6 7 8 8 8 8 8 8 8 8 8 8 8 8 8 8 9 9 10 12 13 14 14 15 16 17 18 19 20 20 21 22
Wind_Direction
324 322 321 322 328 336 328 308 288 292 290 290 291 289 282 277 278 284 283 276 271 268 261 264 272 279 299 297 288 290 284 268 264 261 262 262 260 258 261 263 281 281 254 232 239 243 240 166 112
320 316 314 315 320 334 323 305 285 291 291 292 288 281 275 277 287 283 280 274 264 262 257 262 269 270 284 290 284 281 275 267 264 261 261 264 268 272 266 262 268 265 260 254 255 263 266 264 263
317 313 311 312 323 317 302 293 286 290 291 288 286 281 277 285 286 279 278 269 261 262 260 262 266 267 274 277 277 277 273 269 269 269 269 270 268 271 271 266 265 261 259 259 258 260 260 261 261
314 312 311 310 329 288 276 281 285 287 287 287 285 279 277 274 279 279 275 265 258 258 260 260 261 262 265 266 269 272 274 271 269 270 273 272 268 268 269 269 266 264 264 263 259 256 255 257 258
311 307 307 324 318 285 279 280 283 286 286 286 282 278 280 275 274 272 273 265 257 253 255 255 255 256 259 263 267 271 272 270 267 268 271 272 271 273 275 273 268 267 267 264 260 256 253 254 255
306 303 305 316 308 290 281 281 285 284 275 278 278 276 278 271 266 267 265 261 255 247 247 249 249 253 257 259 266 272 271 269 268 269 269 271 272 273 276 273 271 270 267 265 264 259 255 257 256
304 301 296 288 279 280 279 281 282 274 269 270 269 270 273 269 264 263 263 259 253 245 247 247 248 254 257 258 263 270 269 268 270 270 269 271 274 272 272 269 265 263 264 266 266 264 260 257 256
303 296 297 292 280 275 272 279 282 275 269 269 268 268 272 265 263 261 259 255 251 249 248 248 249 252 256 258 262 266 268 269 269 270 271 273 273 272 269 267 266 263 263 265 266 267 265 260 257
297 291 299 275 266 270 275 280 284 279 270 266 266 267 272 264 259 256 258 254 250 249 249 248 247 250 254 257 259 264 267 270 268 269 271 270 270 269 267 266 266 266 265 263 264 267 266 264 262
292 280 276 257 249 253 265 278 281 279 279 272 268 264 263 262 259 254 255 250 248 249 247 247 247 249 251 253 256 261 264 266 266 268 270 268 268 267 268 269 270 270 268 263 264 266 268 267 266
290 274 261 264 267 266 267 270 278 273 268 267 268 265 260 260 257 256 254 250 250 249 247 247 249 249 247 250 255 262 264 265 267 270 272 270 272 273 274 273 269 271 271 269 271 275 275 271 268
294 283 276 275 280 282 277 276 277 280 272 271 271 269 259 259 255 254 254 251 251 249 249 248 248 247 246 251 258 262 263 268 269 272 273 272 275 279 278 278 277 274 272 271 275 280 281 276 271
298 298 297 296 298 297 292 287 284 283 276 282 278 273 268 264 258 256 253 250 248 249 248 248 247 247 249 253 259 260 262 268 268 272 276 278 282 284 284 284 282 285 284 282 280 282 279 276 272
294 297 298 300 303 307 306 300 295 288 284 286 282 276 269 264 259 256 251 247 246 248 248 246 247 248 252 254 257 260 262 266 272 277 278 281 286 288 293 290 290 291 290 288 285 285 280 279 274
306 310 304 300 303 310 310 301 300 298 298 296 291 284 273 265 261 256 249 245 242 246 249 246 245 247 250 251 256 259 262 267 270 275 276 280 288 295 291 284 286 290 296 295 290 289 285 281 278
308 310 297 297 303 307 310 307 310 310 306 302 294 290 279 268 260 256 251 246 244 244 244 244 242 243 246 248 251 257 261 268 270 276 276 281 289 295 288 286 291 300 303 300 296 293 290 284 279
305 301 303 309 303 296 304 308 310 310 308 304 300 294 284 272 259 253 248 243 243 240 240 239 236 238 241 243 248 254 255 262 262 267 274 279 292 296 294 294 300 305 309 309 306 301 297 294 290
310 314 311 303 297 298 300 303 309 310 308 307 304 298 289 280 258 244 240 240 239 235 233 234 234 234 235 238 242 247 248 253 260 257 263 277 291 295 300 306 312 317 321 324 324 319 313 307 302
275 276 277 278 283 294 301 305 309 312 311 309 307 302 294 284 262 238 235 238 237 233 232 229 226 225 226 232 237 239 235 242 251 248 253 280 300 308 321 329 331 334 338 338 337 332 326 321 314
260 270 276 280 290 294 299 304 307 312 313 313 311 306 297 279 261 240 234 237 233 228 228 219 218 219 221 226 225 222 223 226 226 220 243 264 307 330 344 344 344 347 348 347 346 344 340 332 325
263 272 278 285 293 300 304 304 307 317 319 313 313 308 298 280 261 239 230 227 223 223 215 209 207 210 216 214 212 211 212 216 218 216 219 242 309 340 351 355 356 358 357 353 348 344 340 336 330
264 270 277 282 292 295 295 293 296 314 322 319 316 312 301 283 248 225 213 210 208 209 204 199 201 208 214 213 209 209 209 217 214 188 187 185 34 12 8 360 359 0 357 351 346 342 339 335 331
262 265 270 275 277 279 283 289 299 313 324 324 323 315 291 267 235 218 200 196 200 200 199 199 200 204 204 203 204 206 205 201 186 173 169 151 78 23 9 356 352 352 349 345 340 337 336 335 333
260 266 265 267 271 272 288 295 303 325 326 323 324 320 288 247 225 206 194 197 197 194 195 195 196 196 197 199 200 197 191 184 176 174 171 169 1 348 348 343 340 340 340 338 335 333 333 333 331
255 264 275 285 294 289 303 288 299 322 323 321 321 318 295 235 208 199 192 190 191 189 189 190 191 194 197 198 195 194 195 196 187 188 202 231 285 310 320 328 331 332 333 334 333 333 332 331 329
255 262 270 285 306 318 304 282 292 312 313 312 311 304 280 216 184 179 179 177 178 180 184 188 191 196 197 199 198 197 201 200 198 208 232 262 288 300 309 318 323 324 327 329 330 330 330 329 328
251 256 262 275 286 291 284 288 282 287 307 312 306 293 258 214 186 178 175 173 181 186 186 186 188 191 197 199 199 198 204 207 213 227 249 276 290 298 306 312 316 319 323 325 327 328 328 327 325
242 251 256 262 267 272 272 273 268 294 312 315 300 283 256 221 200 196 190 185 185 188 190 192 189 189 195 198 200 204 208 219 231 245 264 281 292 298 303 308 312 315 318 320 321 323 324 325 324
237 240 245 254 255 265 282 284 286 295 301 301 285 266 248 229 212 206 206 202 200 197 196 199 202 205 206 206 208 215 223 233 244 257 271 283 290 296 301 305 309 313 315 317 318 319 321 322 321
231 235 242 252 254 255 270 278 274 282 288 286 274 260 248 238 229 219 212 209 209 210 209 209 212 215 215 216 222 228 235 243 253 265 275 283 289 295 300 304 307 309 312 314 315 317 318 319 319
Height
5903 5902 5902 5902 5902 5901 5898 5896 5897 5897 5896 5895 5894 5893 5891 5888 5888 5892 5889 5889 5891 5891 5892 5892 5893 5893 5893 5894 5894 5894 5893 5893 5893 5893 5893 5893 5892 5892 5892 5892 5892 5892 5892 5893 5893 5893 5893 5893 5893
5902 5901 5901 5900 5901 5899 5898 5897 5896 5895 5894 5893 5892 5891 5889 5885 5887 5888 5887 5888 5889 5889 5890 5891 5891 5892 5892 5893 5893 5893 5893 5893 5893 5893 5892 5892 5892 5892 5892 5892 5892 5892 5892 5892 5893 5893 5893 5893 5893
5900 5899 5899 5899 5899 5899 5899 5897 5895 5893 5892 5891 5890 5889 5886 5885 5886 5886 5886 5886 5887 5888 5889 5889 5890 5891 5891 5892 5892 5892 5892 5892 5892 5892 5892 5892 5892 5892 5892 5892 5891 5891 5892 5892 5892 5893 5893 5893 5893
5898 5898 5897 5898 5897 5898 5898 5897 5893 5891 5890 5888 5888 5885 5883 5883 5884 5884 5884 5884 5885 5886 5887 5887 5888 5889 5890 5890 5891 5891 5892 5892 5892 5892 5891 5891 5891 5891 5891 5891 5891 5891 5891 5891 5891 5892 5892 5892 5893
5895 5895 5895 5895 5895 5897 5896 5894 5890 5888 5888 5886 5885 5880 5880 5880 5882 5882 5882 5882 5883 5884 5885 5886 5886 5887 5888 5889 5890 5890 5890 5891 5891 5891 5891 5890 5890 5890 5890 5890 5890 5890 5890 5890 5891 5891 5891 5892 5892
5894 5893 5893 5893 5896 5896 5894 5891 5889 5886 5884 5883 5882 5877 5877 5876 5878 5879 5879 5879 5881 5882 5883 5884 5885 5886 5887 5887 5888 5889 5889 5890 5890 5890 5889 5889 5889 5889 5889 5889 5889 5889 5889 5889 5889 5890 5890 5890 5890
5892 5890 5890 5892 5895 5896 5891 5886 5886 5883 5881 5880 5878 5875 5874 5874 5876 5877 5877 5877 5878 5880 5881 5882 5883 5884 5885 5886 5887 5887 5888 5888 5888 5888 5888 5888 5888 5888 5888 5888 5887 5887 5887 5888 5888 5888 5889 5889 5889
5888 5889 5888 5890 5893 5893 5887 5883 5882 5880 5879 5877 5875 5872 5872 5872 5873 5874 5875 5875 5876 5877 5879 5880 5881 5882 5883 5884 5885 5886 5886 5886 5887 5887 5887 5887 5887 5886 5886 5886 5886 5886 5886 5886 5887 5887 5887 5887 5888
5885 5887 5886 5889 5890 5889 5884 5880 5879 5876 5875 5873 5870 5869 5868 5869 5870 5871 5872 5872 5873 5874 5876 5877 5878 5879 5881 5882 5883 5883 5884 5884 5885 5885 5885 5885 5885 5885 5884 5884 5885 5885 5885 5885 5885 5885 5886 5886 5886
5883 5883 5884 5885 5885 5883 5880 5877 5876 5873 5871 5869 5867 5866 5865 5864 5866 5868 5869 5870 5870 5872 5873 5875 5876 5877 5878 5879 5880 5881 5881 5882 5882 5882 5883 5883 5883 5883 5883 5883 5883 5883 5883 5883 5883 5883 5884 5884 5884
5880 5881 5880 5880 5879 5877 5876 5873 5872 5870 5868 5865 5862 5860 5859 5862 5863 5865 5865 5866 5867 5869 5870 5872 5873 5874 5876 5877 5877 5878 5879 5879 5879 5880 5880 5880 5881 5881 5881 5881 5881 5880 5881 5881 5881 5882 5882 5882 5882
5878 5877 5877 5876 5875 5873 5872 5870 5868 5866 5863 5861 5860 5856 5856 5857 5858 5860 5862 5862 5864 5866 5867 5869 5870 5871 5873 5874 5875 5876 5877 5877 5878 5878 5878 5879 5879 5879 5879 5879 5879 5879 5879 5879 5879 5879 5880 5880 5880
5876 5875 5874 5873 5872 5870 5868 5866 5864 5862 5860 5859 5857 5856 5855 5854 5856 5857 5857 5858 5861 5863 5864 5866 5867 5868 5871 5872 5873 5874 5875 5875 5876 5877 5877 5877 5877 5878 5878 5878 5878 5877 5877 5877 5877 5878 5878 5878 5878
5873 5873 5872 5871 5870 5868 5866 5864 5861 5857 5856 5855 5854 5853 5852 5851 5852 5852 5853 5855 5857 5859 5861 5863 5865 5866 5868 5870 5871 5872 5873 5874 5874 5875 5875 5876 5876 5876 5876 5876 5876 5876 5876 5876 5876 5876 5876 5876 5877
5870 5870 5869 5868 5867 5865 5863 5861 5858 5854 5853 5852 5851 5849 5847 5847 5847 5848 5849 5852 5854 5856 5858 5859 5861 5864 5866 5867 5869 5870 5871 5872 5873 5873 5874 5874 5874 5875 5875 5875 5875 5874 5874 5874 5874 5874 5874 5874 5875
5868 5868 5867 5866 5864 5863 5862 5859 5856 5853 5850 5848 5847 5845 5843 5842 5842 5844 5845 5848 5851 5853 5855 5856 5858 5861 5863 5865 5867 5868 5869 5870 5871 5872 5872 5872 5873 5873 5873 5874 5873 5873 5873 5873 5873 5872 5872 5872 5872
5866 5866 5865 5864 5862 5862 5860 5857 5854 5851 5848 5845 5844 5841 5839 5837 5838 5839 5840 5843 5846 5849 5851 5853 5856 5858 5860 5863 5865 5866 5868 5869 5869 5870 5871 5871 5871 5872 5872 5872 5872 5872 5872 5872 5871 5871 5871 5870 5870
5866 5866 5865 5865 5862 5860 5858 5855 5852 5849 5846 5843 5840 5838 5835 5833 5832 5835 5838 5840 5843 5846 5848 5850 5853 5856 5858 5861 5862 5864 5866 5867 5868 5869 5870 5870 5870 5871 5871 5871 5871 5871 5871 5871 5870 5870 5869 5869 5868
5865 5865 5866 5864 5860 5858 5856 5853 5850 5847 5845 5841 5838 5835 5833 5832 5831 5833 5836 5838 5840 5843 5846 5848 5850 5853 5856 5859 5861 5863 5864 5866 5867 5868 5869 5869 5870 5870 5870 5870 5870 5870 5870 5870 5869 5868 5868 5867 5867
5862 5862 5862 5860 5858 5856 5853 5851 5848 5845 5842 5839 5836 5834 5832 5831 5831 5832 5834 5836 5838 5841 5843 5846 5849 5852 5854 5857 5859 5861 5863 5865 5866 5867 5868 5868 5869 5869 5870 5870 5870 5869 5869 5869 5868 5867 5867 5866 5865
5860 5860 5858 5857 5855 5853 5851 5848 5845 5843 5841 5838 5835 5833 5831 5830 5830 5831 5832 5834 5836 5839 5842 5845 5848 5851 5853 5856 5858 5860 5862 5864 5865 5866 5867 5868 5868 5869 5869 5869 5869 5869 5868 5868 5867 5867 5866 5865 5864
5856 5856 5855 5854 5852 5850 5849 5845 5843 5841 5839 5836 5834 5832 5830 5829 5829 5830 5832 5833 5836 5838 5841 5844 5847 5850 5852 5855 5857 5859 5861 5863 5865 5866 5867 5868 5868 5869 5869 5869 5869 5868 5868 5867 5866 5865 5864 5863 5862
5853 5853 5852 5851 5849 5847 5845 5842 5840 5838 5837 5835 5833 5831 5830 5829 5830 5830 5832 5833 5835 5838 5840 5843 5846 5848 5851 5854 5856 5859 5860 5862 5864 5866 5867 5868 5868 5868 5869 5868 5868 5868 5867 5867 5865 5864 5863 5862 5860
5850 5849 5848 5846 5844 5842 5841 5839 5837 5837 5836 5835 5833 5831 5829 5829 5830 5830 5831 5833 5835 5837 5840 5842 5845 5848 5851 5853 5855 5858 5860 5862 5864 5865 5866 5867 5868 5868 5868 5868 5868 5867 5866 5865 5864 5863 5862 5860 5858
5846 5846 5844 5842 5840 5837 5839 5838 5836 5836 5836 5834 5833 5831 5830 5830 5830 5831 5832 5834 5836 5838 5840 5842 5845 5847 5850 5852 5855 5857 5859 5861 5863 5865 5866 5867 5867 5867 5867 5867 5867 5866 5865 5864 5863 5861 5860 5858 5856
5843 5843 5843 5841 5839 5837 5835 5835 5836 5835 5835 5834 5833 5832 5831 5831 5831 5832 5833 5834 5837 5839 5840 5842 5845 5847 5849 5852 5854 5856 5859 5860 5862 5864 5865 5866 5866 5866 5866 5866 5865 5865 5863 5862 5861 5859 5857 5855 5853
5839 5839 5840 5839 5838 5837 5836 5834 5831 5832 5833 5833 5832 5832 5832 5832 5832 5833 5834 5835 5837 5839 5841 5842 5844 5846 5848 5850 5853 5855 5858 5859 5861 5863 5864 5864 5865 5865 5865 5864 5864 5863 5861 5860 5858 5857 5855 5853 5851
5836 5837 5837 5836 5835 5835 5834 5831 5828 5829 5830 5832 5832 5832 5832 5832 5833 5834 5835 5836 5838 5839 5841 5842 5844 5846 5848 5850 5852 5854 5856 5858 5860 5861 5862 5863 5863 5863 5863 5862 5861 5860 5859 5858 5856 5854 5852 5850 5848
5831 5832 5832 5832 5833 5833 5831 5830 5826 5828 5829 5831 5832 5832 5832 5832 5833 5834 5835 5836 5838 5839 5840 5842 5844 5845 5847 5849 5851 5854 5855 5857 5858 5860 5860 5861 5861 5861 5860 5860 5859 5858 5856 5855 5853 5851 5849 5846 5844
5823 5826 5828 5829 5829 5829 5829 5829 5825 5827 5827 5830 5831 5831 5832 5832 5833 5834 5835 5836 5837 5839 5840 5842 5843 5845 5847 5849 5851 5852 5854 5855 5857 5857 5858 5858 5858 5858 5858 5857 5856 5854 5853 5851 5849 5847 5845 5843 5840